"Pseudo-MPEC" for ZTF03a9

Created 2019 Jun 15 23:08:20 UT using Find_Orb

Click here for an explanation of pseudo-MPECs

 
 Astrometry: 
     ZTF03a9  C2019 01 08pSHw`B;CMoU]EH]KM*2lgvD*p]+gpQ8#5v*;Iypaxrx$(6FI,BmjF51
     ZTF03a9  C2019 01 088PuZMrX'avWl7[EaBD3tgV83%xUsiH#d($kT\L;2*a#eaa_+[as7F51
     ZTF03a9  C2019 01 08S,Qi@dm_FK*a1os;1PZrnuWyVrLGKY=OaC9T\9%@mfQb9FMiE7!VF51
     ZTF03a9  C2019 01 17j1N=2yP*V%kyry5e$UXD-t7SHZ4GKi$o!,2g,qbu;G;*2s_jqFe.F52
     ZTF03a9  C2019 01 17TgBB4m18cfEOT+F%GABi]F!1_F(`1k:x3\2[G%x4$'B/MGVICL8[F52
     ZTF03a9  C2019 01 17rmlW9tq$?1-GihIH@]LG%[ukDJq6+i)wwKr!k]XR_!@.I:EOa$d6F52
     ZTF03a9  C2019 01 17*/Z.J9o.jI+u`a3rAstrometry9rs3ZvMYK4]5KAD_PJdisrZwWPF52
     ZTF03a9  C2019 05 21rqk+j*W=q7nDJ?2-/7)-QY2;+g6\DfU;1`_;W2/K0ZDCA-4J;e]MF51
     ZTF03a9  C2019 05 21`2mPokq$a(dx\W0F(uZ'rU4,ZOr=VRWC.lE%p,a4a_KJq!E+(=`#F51
     ZTF03a9  C2019 05 21@FO^\oy\#k[\aBDP))!G-rHR#*I=GM^mVBI87#Non0+0RO`[3a\tF51
     ZTF03a9  C2019 06 04.18634014 03 17.64 +53 21 26.7    ~66Jb 20.89gUNEOCPI41
     ZTF03a9  C2019 06 04.21752014 03 21.81 +53 19 55.1    ~66Jb 20.48rUNEOCPI41
     ZTF03a9  C2019 06 04.25470914 03 26.81 +53 18 05.6    ~66Jb 20.59rUNEOCPI41
     ZTF03a9  C2019 06 06.17823014 07 58.64 +51 41 54.7    ~66Jb 20.69gUNEOCPI41
     ZTF03a9  C2019 06 06.23954114 08 06.68 +51 38 47.2    ~66Jb 20.30rUNEOCPI41
     ZTF03a9  C2019 06 06.32556014 08 18.09 +51 34 21.3    ~68Nb 21.03gUNEOCPI41
     ZTF03a9  C2019 06 07.18590014 10 18.42 +50 50 03.0    ~68Nb 21.12gUNEOCPI41
     ZTF03a9  C2019 06 07.28622014 10 31.43 +50 44 48.3    ~68Nb 20.45rUNEOCPI41
     ZTF03a9  C2019 06 07.28806914 10 31.69 +50 44 42.6    ~68Nb 20.43rUNEOCPI41
     ZTF03a9  C2019 06 07.30873014 10 34.37 +50 43 37.2    ~68Nb 20.33rUNEOCPI41
     ZTF03a9  C2019 06 07.31720014 10 35.48 +50 43 10.5    ~68Nb 20.53rUNEOCPI41
     ZTF03a9 KC2019 06 07.96627 14 12 04.80 +50 09 07.2    ~68Dq 20.3 VqNEOCPI93
     ZTF03a9 KC2019 06 07.97430 14 12 05.90 +50 08 41.5    ~68Dq 19.8 VqNEOCPI93
     ZTF03a9 KC2019 06 07.98231 14 12 06.93 +50 08 16.0    ~68Dq 20.0 VqNEOCPI93
     ZTF03a9 KC2019 06 083_MjiP-6Wk]4gaLYd!N2e3B=c(RPCh$VM+F=\T-myE'g,.FJcN6NH21
     ZTF03a9 KC2019 06 08aYE$;w._e3omp0T$qH#)DkjTr=\ZP'^kXG*xZTERJU-(/+w8*y*tH21
     ZTF03a9 KC2019 06 08Z8mwu'MV?rifWA1fS5u:=!Ixa,RE[2^(c3/jiNb2o?So*??:6pe9H21
     ZTF03a9  C2019 06 08.19923 14 12 37.34 +49 56 52.7    ~6937 20.8 GVNEOCPI52
     ZTF03a9  C2019 06 08.20319 14 12 37.67 +49 56 39.1    ~6937       VNEOCPI52
     ZTF03a9  C2019 06 08.20716 14 12 38.14 +49 56 27.0    ~6937       VNEOCPI52
     ZTF03a9  C2019 06 08.21622 14 12 39.35 +49 55 58.2    ~6937 20.9 GVNEOCPI52
     ZTF03a9 KC2019 06 08n'yLZ20OCK?gT\yI!-r`LO%Ak71/_8.`dCLu_reA9?#9BYn?LCxm734
     ZTF03a9 KC2019 06 08i:^#D8f*/VQH2$3T=,10(j0wc7tb*cVicZgUqX/'c1:AEH_+YI4J734
     ZTF03a9 KC2019 06 084egK_O/I,Rf@?B@jT)rq:f994xEm!3q5x_:]hJ`tM:vIZf#=8tX$734
     ZTF03a9 KC2019 06 083Klep:g]1V[Jqs9AYgw`(s/:24Ral1N=W:hq[K]7a-b4]mh5.Jb=L01
     ZTF03a9 pC2019 06 08@*T/EtsrQ3`Ine,`m:H`bjup:]g4:KCIpCCj;N#UQLu]fU+hp-(2L01
     ZTF03a9 KC2019 06 08w#(k;I%UuXkFU[;)9K[?Fr_!WMKdV];3?,(Cf]h;c4py*T8U51UaK88
     ZTF03a9 KC2019 06 08pV?w\]-redacted;syAm+I6qaT`V=clickN'p2[.gJsv1C-PAihNL01
     ZTF03a9 KC2019 06 08bgI/rsED4y^jqfqgyRP@#=hGJrhm`/Mf?F9dDM(=in50GA`Bx_feK88
     ZTF03a9  C2019 06 09c^-0E#srC8r\WcOx[GJNnki6C-O/LlnYV9\Peh^yTZN-;lT?udm.F51
     ZTF03a9  C2019 06 09Kv=Qi10E$Fuj(C=6WFCrlwkgTU+Gc0C[afFKf%r;IRYQuQg,weXiF51
     ZTF03a9 KC2019 06 10I1p%=B';#h'$nm)@chereRrB]HM$T$i3H,\Y;Ot^V5;ypsGg'T_#734
     ZTF03a9 KC2019 06 107aQp/_)Wk?jHfor[@BsP1h)[bPy=ZMW^i44xtq0?7AL@=yqNg0)+734
     ZTF03a9  C2019 06 10.20187014 17 07.94 +48 08 49.5    ~6AKq 20.63gUNEOCPI41
     ZTF03a9 KC2019 06 10cHHDuY(9RKN@I8YA)4=/TZexplanation.%/OZsYe6[gZ0G#yg+s734
     ZTF03a9  C2019 06 10.26260014 17 15.60 +48 05 28.6    ~6AKq 20.02rUNEOCPI41
     ZTF03a9  C2019 06 10.26351014 17 15.73 +48 05 25.7    ~6AKq 20.17rUNEOCPI41
     ZTF03a9  C2019 06 10.29116014 17 19.25 +48 03 53.7    ~6AKq 20.39rUNEOCPI41
     ZTF03a9  C2019 06 11k-1$)n8F#Gei;`NKS/m3s:*vmK\fiRuLgL$h-Cov^Um2[FuNYHB=F51
     ZTF03a9  C2019 06 11Eii'/_Ja4Q#tDd=9;o.h*T2gfT+ewNF,3qHHd$Y^HD!b_W1mFo!'F51
     ZTF03a9  C2019 06 11h*5Mp2!piA@7C*o#h=!DY:!DaG9b?t*J/2tu3jnVf4m/?fa4A+G[F51
     ZTF03a9  C2019 06 13.19591 14 23 42.95 +45 20 17.1    ~6D57       VNEOCPI52
     ZTF03a9  C2019 06 13.19667 14 23 43.05 +45 20 15.3    ~6D57       VNEOCPI52
     ZTF03a9  C2019 06 13.19744 14 23 43.23 +45 20 12.5    ~6D57       VNEOCPI52
     ZTF03a9  C2019 06 13.19820 14 23 43.23 +45 20 09.9    ~6D57       VNEOCPI52
     ZTF03a9 KC2019 06 14-lB._^NZCRCUL?Bp3y\!FF@cf(wbgDCtj@)PX1d!c-ViLy99xPoDH21
     ZTF03a9 KC2019 06 14P5aq^$_]3MvpWT'AVDO23U1'IcW.--o#Y.\rE^+rZP4]Kj(Wo0BvH21
     ZTF03a9 KC2019 06 14Y,SQn`^==%5J^uCrwM`Zx+bSbXc*.vjbM^eV@)[@r,Xm)*D0kYbvH21
     ZTF03a9  C2019 06 15.18928 14 28 00.35 +43 23 41.0    ~6F5M 20.4 GVNEOCPI52
     ZTF03a9  C2019 06 15.19011 14 28 00.42 +43 23 37.8    ~6F5M 21.1 GVNEOCPI52
     ZTF03a9  C2019 06 15.19093 14 28 00.53 +43 23 35.1    ~6F5M 20.5 GVNEOCPI52

Station data:
(734) Farpoint Observatory, Eskridge  (N38.890107 W96.001400)  US/Kansas.
   Observer G. Hug. 0.69-m reflector + CCD.
(F51) Pan-STARRS 1, Haleakala  (N20.707235 W156.255910)  US/Hawaii.
   Observers N. Primak, A. Schultz, S. Watters, J. Thiel, T. Goggia. Measurer
   PS1 Science Consortium. 1.8-m Ritchey-Chrétien + CCD.
(F52) Pan-STARRS 2, Haleakala  (N20.707384 W156.255910)  US/Hawaii. 1.8-m
   Ritchey-Chrétien + CCD.
(H21) Astronomical Research Observatory, Westfield  (N39.483057 W87.968270)
   US/Illinois. 0.76-m f/3.0 astrograph + CCD.
(I41) Palomar Mountain--ZTF  (N33.357340 W116.859780)  US/California. 1.2-m
   f/2.44 Oschin Schmidt + CCD.
(I52) Steward Observatory, Mt. Lemmon Station  (N32.442547 W110.788920)
   US/Arizona.  Observers T. A. Pruyne, B. M. Africano, E. J. Christensen, G.
   A. Farneth, D. C. Fuls, A. R. Gibbs, A. D. Grauer, H. Groeller, J. A.
   Johnson, R. A. Kowalski, S. M. Larson, G. J. Leonard, R. L. Seaman, F. C.
   Shelly. 1.0-m reflector + CCD.
(I93) St Pardon de Conques  (N44.558710 W0.203000)  France.  Observer F.
   Losse. 0.40-m f/3.7 reflector + CCD.
(K88) GINOP-KHK, Piszkéstető  (N47.917622 E19.893600)  Hungary.  Observer K.
   Sárneczky. 0.60-m Schmidt + CCD.
(L01) Višnjan Observatory, Tičan  (N45.290900 E13.749300)  Croatia.
   Observers K. Korlević, E. Pettarin. Measurer E. Pettarin. 1.0-m f/2.9
   reflector + CCD.

Orbital elements:  ZTF03a9
   Perihelion 2019 May 10.139968 +/- 0.000288 TT =  3:21:33 (JD 2458613.639968)
Epoch 2019 Jun 15.0 TT = JDT 2458649.5   Earth MOID: 0.4643   AutoNEOCP
M   9.55861539 +/- 0.00034          (J2000 ecliptic)
n   0.26655345 +/- 9.43e-6          Peri.   96.73165 +/- 0.00043
a   2.39118495 +/- 5.64e-5          Node   115.11528 +/- 0.00012
e   0.4978368 +/- 1.03e-5           Incl.   28.32404 +/- 0.00021
P   3.70                   H 19.5   G  0.15   U  5.0  
q 1.20076489 +/- 4.48e-6    Q 3.58160501 +/- 0.000109
From 61 observations 2019 Jan. 8-June 15; mean residual 0".43
Residuals in arcseconds: 
190108 F51  .02+  .15+    190607 I93  .61-  .06-    190610 734  .44+  .52+    
190108 F51  .01+  .07+    190607 I93  .14-  .13-    190610 I41  .03+  .41-    
190108 F51  .10-  .03-    190607 I93  .34-  .04-    190610 734  1.6-  .97+    
190117 F52  .05-  .03+    190608 H21  .02-  .10+    190610 I41  .06+  .49-    
190117 F52  .09+  .13-    190608 H21  .30-  .05+    190610 I41  .21+  .37-    
190117 F52  .09+  .10-    190608 H21  .12+  .27+    190610 I41  .37+  .43-    
190117 F52  .03-  .05-    190608 I52  1.5+  .18+    190611 F51  .12+  .21+    
190521 F51  .17-  .32+    190608 I52  .17-  .81-    190611 F51  .02-  .16+    
190521 F51  .03-  .25+    190608 I52  .56-  .27-    190611 F51  .12-  .16+    
190521 F51  .00   .27+    190608 I52  .10-  .18-    190613 I52  .18-  .72-    
190604 I41  .13+  .30-    190608 734  .34-  1.3+    190613 I52  .11-  .11+    
190604 I41  .06+  .38-    190608 734  .01+  1.6-    190613 I52  .79+  .02-    
190604 I41  .19+  .16-    190608 734  .10+  .11+    190613 I52  .19-  .01+    
190606 I41  .16-  .60-    190608 L01  .02+  .76+    190614 H21  .09+  .12+    
190606 I41  .13-  .45-    190608 L01  .85-  .87+    190614 H21  .42+  .37+    
190606 I41  .43+  .37-    190608 K88  .68+  .01+    190614 H21  .27+  .22+    
190607 I41  .48+  .05-    190608 L01  .27+  .23-    190615 I52  .09-  .11-    
190607 I41  .27+  .47-    190608 K88  .12-  .34+    190615 I52  .42-  .35-    
190607 I41  .45+  .34-    190609 F51  .12-  .21+    190615 I52  .30-  .13-    
190607 I41  .21+  .48-    190609 F51  .03-  .18+    
190607 I41  .19+  .38-    190610 734  .10-  .83+    

Ephemerides (geocentric):
Date (UTC) HH   RA              Dec         delta   r     elong  mag " sig PA
---- -- -- --  -------------   -----------  ------ ------ -----  --- ---- ---
2019 06 15 23  14 29 38.594   +42 37 45.84  .58215 1.2669 101.4 20.7 .138   7
2019 06 16 00  14 29 43.895   +42 35 15.90  .58213 1.2670 101.4 20.7 .139   7
2019 06 16 01  14 29 49.195   +42 32 45.87  .58212 1.2672 101.5 20.7 .140   7
2019 06 16 02  14 29 54.493   +42 30 15.77  .58211 1.2673 101.5 20.7 .141   6
2019 06 16 03  14 29 59.790   +42 27 45.58  .58209 1.2675 101.5 20.7 .142   6
2019 06 16 04  14 30 05.085   +42 25 15.31  .58208 1.2676 101.5 20.7 .143   6
2019 06 16 05  14 30 10.378   +42 22 44.95  .58207 1.2678 101.5 20.7 .144   6
2019 06 16 06  14 30 15.669   +42 20 14.52  .58206 1.2679 101.6 20.7 .145   6
2019 06 16 07  14 30 20.958   +42 17 44.00  .58204 1.2681 101.6 20.7 .146   6
2019 06 16 08  14 30 26.246   +42 15 13.39  .58203 1.2682 101.6 20.7 .147   6
2019 06 16 09  14 30 31.533   +42 12 42.71  .58202 1.2683 101.6 20.7 .148   6
2019 06 16 10  14 30 36.817   +42 10 11.95  .58201 1.2685 101.6 20.7 .149   6
2019 06 16 11  14 30 42.100   +42 07 41.10  .58200 1.2686 101.7 20.7 .150   6
2019 06 16 12  14 30 47.381   +42 05 10.17  .58199 1.2688 101.7 20.7 .151   6
